{"data":{"norad_id":57235,"epoch":"2026-09-19T14:40:05.773152Z","epoch_age_seconds":201059,"freshness":"STALE","line1":"1 57235U 23094T   26262.61117793 -.00000673  00000+0 -14931-4 0  9992","line2":"2 57235  43.0033  15.5183 0001211 274.3501  85.7213 15.27572575176777","mean_motion":15.27572575,"eccentricity":0.0001211,"inclination_deg":43.0033,"raan_deg":15.5183,"arg_perigee_deg":274.3501,"mean_anomaly_deg":85.7213,"bstar":-1.4931e-5,"rev_number":17677,"period_min":94.267206911593,"perigee_km":482.24043692217,"apogee_km":483.90222157951,"semimajor_km":6861.2083292508,"source":"CELESTRAK","updated_at":"2026-09-21T09:00:33.587368Z"}}